Regional Weather Roundup
Issued by NWS

Home | Current Version | Previous Version | Graphics & Text | Print | Product List | Glossary On
Versions: 1 2 3 4 5 6 7 8 9 10 11 12 13 14 15 16 17 18 19 20 21 22 23 24 25 26 27 28 29 30 31 32 33 34 35 36 37 38 39 40 41 42 43 44 45 46 47 48 49 50
753
ASUS43 KLMK 130810
RWRKY
KENTUCKY REGIONAL WEATHER ROUNDUP
NATIONAL WEATHER SERVICE LOUISVILLE KY
300 AM EST WED DEC 13 2017

NOTE "FAIR" INDICATES FEW OR NO CLOUDS BELOW 12,000 FEET
WITH NO SIGNIFICANT WEATHER AND/OR OBSTRUCTIONS TO VISIBILITY.

KYZ001>023-026-027-061>063-070>075-130900-
WESTERN AND SOUTH CENTRAL KENTUCKY

CITY           SKY/WX    TMP DP  RH WIND       PRES   REMARKS
PADUCAH        CLOUDY    25  11  55 SW6       30.06F WCI  18
HENDERSON      CLOUDY    22  14  71 S5        30.04F WCI  16
OWENSBORO      CLOUDY    21  15  78 S3        30.05F
HOPKINSVILLE   CLOUDY    23  11  59 CALM      30.07S
BOWLING GREEN  CLOUDY    23  11  60 S3        30.07F
GLASGOW        CLOUDY    20  13  74 CALM      30.05F
$$

KYZ024-025-028>034-038-045-046-053-130900-
NORTH CENTRAL KENTUCKY

CITY           SKY/WX    TMP DP  RH WIND       PRES   REMARKS
LOUISVILLE/SDF CLEAR     25   8  48 SW9       30.02F WCI  15
LOUISVILLE/LOU CLEAR     21  10  62 S6        30.03S WCI  13
FORT KNOX      CLEAR     20   8  60 CALM      30.01S
$$

KYZ035>037-039>044-047>052-055>060-089>105-130900-
NORTHEAST KENTUCKY

CITY           SKY/WX    TMP DP  RH WIND       PRES   REMARKS
LEXINGTON      PTCLDY    18   8  65 W5        30.01R WCI  11
COVINGTON      PTCLDY    17   9  70 SW5       29.96F WCI  10
FRANKFORT      CLEAR     19   7  59 SW6       30.00S WCI  11
$$

KYZ054-064>069-076>088-106>120-130900-
SOUTHEAST KENTUCKY

CITY           SKY/WX    TMP DP  RH WIND       PRES   REMARKS
JACKSON        CLEAR     19   7  59 VRB5      29.97S WCI  12
LONDON         CLEAR     20   9  62 W5        30.01F WCI  13
SOMERSET       CLEAR     21   9  58 W8        30.05F WCI  12
MIDDLESBORO    CLEAR     24   8  50 CALM      30.03S
MONTICELLO     SUNNY     17  11  77 VRB7      30.07F WCI   8
$$





USA.gov is the U.S. government's official web portal to all federal, state and local government web resources and services.